Location: Acton
(51.4942°N, 0.2232°W)
Time: 01:22:40
(UTC+00:00)

SL-14 R/B - Pass Details

Date: 18 September 2020
Orbit: 519 x 554 km, 82.4° (Epoch: 29 October)

Event Time Altitude Azimuth Distance (km) Brightness Sun altitude
Rises 20:45:49 0° 348° (NNW) 2,674 7.6 -23.8°
Reaches altitude 10° 20:47:58 10° 347° (NNW) 1,784 6.6 -24.0°
Enters shadow 20:51:21 64° 326° (NW) 595 3.6 -24.5°
